NDF9227 LTFM-EDDB

Flight info

Callsign NDF9227
Flight time 2h 15m
Altitude 40000
Route IBLAX P727 BGS L622 GONGO DCT KOMAN DCT NARKA DCT DEMOP DCT MAKAL DCT ETUDA DCT BEFRE T204 NUKRO
Aircraft A35K/H-SDE2E3GHIJ3J4J5LM1ORWXY/LB1D1

Departure

Time 2026-02-17 04:06
Airport İstanbul Airport (LTFM)

Arrival

Time 2026-02-17 06:21
Airport Berlin Brandenburg Airport (EDDB)
Time Latitude Longitude Altitude Speed Heading
2026-02-17 03:52 41.26287 28.74874 319 ft 0 kts 287°
2026-02-17 03:59 41.26286 28.74876 319 ft 1 kts 287°
2026-02-17 03:59 41.26282 28.74897 316 ft 3 kts 286°
2026-02-17 04:00 41.26276 28.74923 318 ft 3 kts 284°
2026-02-17 04:00 41.26272 28.74947 318 ft 3 kts 282°
2026-02-17 04:00 41.26270 28.74971 317 ft 3 kts 250°
2026-02-17 04:00 41.26280 28.74992 318 ft 3 kts 214°
2026-02-17 04:01 41.26297 28.75004 318 ft 3 kts 199°
2026-02-17 04:01 41.26311 28.75010 318 ft 1 kts 197°
2026-02-17 04:01 41.26312 28.75010 318 ft 0 kts 197°
2026-02-17 04:03 41.26310 28.75010 318 ft 1 kts 197°
2026-02-17 04:03 41.26286 28.75001 316 ft 6 kts 191°
2026-02-17 04:03 41.26253 28.75031 318 ft 7 kts 117°
2026-02-17 04:04 41.26241 28.75115 319 ft 11 kts 92°
2026-02-17 04:04 41.26242 28.75236 320 ft 15 kts 89°
2026-02-17 04:04 41.26243 28.75387 320 ft 18 kts 89°
2026-02-17 04:04 41.26244 28.75565 320 ft 17 kts 90°
2026-02-17 04:05 41.26245 28.75646 322 ft 6 kts 90°
2026-02-17 04:05 41.26259 28.75665 318 ft 3 kts 17°
2026-02-17 04:05 41.26297 28.75666 319 ft 12 kts
2026-02-17 04:05 41.26623 28.75661 315 ft 88 kts 359°
2026-02-17 04:06 41.27489 28.75648 312 ft 158 kts 358°
2026-02-17 04:06 41.28631 28.75624 958 ft 166 kts 359°
2026-02-17 04:06 41.29807 28.75660 1794 ft 173 kts
2026-02-17 04:07 41.32117 28.77373 2798 ft 222 kts 36°
2026-02-17 04:07 41.33444 28.78637 3263 ft 244 kts 33°
2026-02-17 04:07 41.34921 28.79903 3893 ft 261 kts 31°
2026-02-17 04:07 41.36497 28.81175 4695 ft 270 kts 30°
2026-02-17 04:08 41.38191 28.82295 5570 ft 273 kts 13°
2026-02-17 04:08 41.40082 28.82500 6417 ft 276 kts 354°
2026-02-17 04:08 41.42016 28.82283 7336 ft 282 kts 351°
2026-02-17 04:08 41.43990 28.82010 8319 ft 288 kts 351°
2026-02-17 04:09 41.46006 28.81738 9357 ft 294 kts 351°
2026-02-17 04:09 41.48059 28.81470 10303 ft 302 kts 351°
2026-02-17 04:09 41.50231 28.81190 10836 ft 325 kts 351°
2026-02-17 04:09 41.52561 28.80894 11360 ft 347 kts 351°
2026-02-17 04:10 41.55002 28.80590 12184 ft 357 kts 351°
2026-02-17 04:10 41.57491 28.80232 13100 ft 362 kts 348°
2026-02-17 04:10 41.59949 28.79436 13957 ft 364 kts 337°
2026-02-17 04:11 41.64247 28.75984 15640 ft 363 kts 313°
2026-02-17 04:11 41.66049 28.73609 16504 ft 365 kts 310°
2026-02-17 04:11 41.69600 28.68666 18412 ft 372 kts 309°
2026-02-17 04:12 41.71403 28.66159 19250 ft 376 kts 310°
2026-02-17 04:12 41.73231 28.63623 20049 ft 380 kts 310°
2026-02-17 04:12 41.75081 28.61058 20858 ft 385 kts 310°
2026-02-17 04:12 41.76947 28.58471 21667 ft 389 kts 310°
2026-02-17 04:13 41.78836 28.55853 22469 ft 393 kts 310°
2026-02-17 04:13 41.80747 28.53204 23256 ft 397 kts 310°
2026-02-17 04:13 41.82673 28.50530 23911 ft 401 kts 310°
2026-02-17 04:13 41.84620 28.47826 24576 ft 405 kts 310°
2026-02-17 04:14 41.86586 28.45093 25214 ft 409 kts 310°
2026-02-17 04:14 41.88540 28.42371 25845 ft 412 kts 310°
2026-02-17 04:14 41.90540 28.39585 26488 ft 416 kts 309°
2026-02-17 04:15 41.94597 28.33923 27726 ft 425 kts 309°
2026-02-17 04:15 41.96653 28.31049 28334 ft 429 kts 309°
2026-02-17 04:15 41.98610 28.28030 28913 ft 429 kts 303°
2026-02-17 04:15 42.00391 28.24798 29515 ft 431 kts 301°
2026-02-17 04:16 42.02123 28.21484 30034 ft 434 kts 300°
2026-02-17 04:16 42.03827 28.18121 30498 ft 437 kts 300°
2026-02-17 04:16 42.05529 28.14717 30993 ft 440 kts 299°
2026-02-17 04:16 42.07238 28.11283 31437 ft 444 kts 299°
2026-02-17 04:17 42.08966 28.07816 31875 ft 447 kts 299°
2026-02-17 04:17 42.10708 28.04330 32316 ft 450 kts 300°
2026-02-17 04:17 42.12461 28.00828 32782 ft 453 kts 299°
2026-02-17 04:17 42.14233 27.97292 33213 ft 456 kts 300°
2026-02-17 04:18 42.16011 27.93742 33604 ft 459 kts 300°
2026-02-17 04:18 42.17801 27.90167 33918 ft 462 kts 300°
2026-02-17 04:18 42.19614 27.86573 34219 ft 465 kts 301°
2026-02-17 04:19 42.24059 27.80104 34950 ft 478 kts 316°
2026-02-17 04:19 42.26802 27.77510 35295 ft 485 kts 323°
2026-02-17 04:19 42.29685 27.75213 35587 ft 489 kts 326°
2026-02-17 04:19 42.32665 27.72987 35964 ft 490 kts 327°
2026-02-17 04:20 42.35667 27.70812 36339 ft 490 kts 327°
2026-02-17 04:20 42.38677 27.68652 36692 ft 490 kts 327°
2026-02-17 04:20 42.41686 27.66486 37034 ft 490 kts 327°
2026-02-17 04:20 42.44693 27.64307 37357 ft 490 kts 327°
2026-02-17 04:21 42.47703 27.62111 37730 ft 490 kts 326°
2026-02-17 04:21 42.50694 27.59916 38135 ft 488 kts 326°
2026-02-17 04:21 42.53667 27.57726 38438 ft 488 kts 326°
2026-02-17 04:21 42.56650 27.55520 38636 ft 489 kts 326°
2026-02-17 04:22 42.59524 27.53090 38783 ft 486 kts 320°
2026-02-17 04:22 42.62297 27.50486 38998 ft 485 kts 320°
2026-02-17 04:22 42.65048 27.47835 39214 ft 485 kts 319°
2026-02-17 04:23 42.70516 27.42463 39628 ft 485 kts 319°
2026-02-17 04:23 42.75994 27.37039 39674 ft 488 kts 319°
2026-02-17 04:24 42.81494 27.31596 39673 ft 489 kts 319°
2026-02-17 04:24 42.86997 27.26151 39672 ft 489 kts 319°
2026-02-17 04:25 42.92504 27.20694 39663 ft 489 kts 319°
2026-02-17 04:25 42.98003 27.15231 39660 ft 489 kts 319°
2026-02-17 04:26 43.03498 27.09757 39660 ft 489 kts 319°
2026-02-17 04:26 43.08957 27.04308 39667 ft 489 kts 319°
2026-02-17 04:27 43.17421 26.96360 39658 ft 491 kts 322°
2026-02-17 04:27 43.23160 26.91263 39657 ft 491 kts 322°
2026-02-17 04:28 43.28835 26.86159 39676 ft 491 kts 321°
2026-02-17 04:28 43.34526 26.80975 39658 ft 491 kts 321°
2026-02-17 04:29 43.40218 26.75760 39644 ft 491 kts 321°
2026-02-17 04:29 43.45901 26.70545 39652 ft 491 kts 321°
2026-02-17 04:30 43.51592 26.65312 39646 ft 492 kts 321°
2026-02-17 04:31 43.60123 26.57445 39649 ft 492 kts 321°
2026-02-17 04:31 43.65810 26.52186 39640 ft 492 kts 321°
2026-02-17 04:32 43.71493 26.46919 39644 ft 492 kts 321°
2026-02-17 04:32 43.77184 26.41631 39644 ft 493 kts 321°
2026-02-17 04:33 43.82867 26.36339 39653 ft 493 kts 321°
2026-02-17 04:33 43.88553 26.31031 39649 ft 493 kts 321°
2026-02-17 04:34 43.94241 26.25710 39656 ft 493 kts 321°
2026-02-17 04:34 43.99728 26.20077 39659 ft 488 kts 315°
2026-02-17 04:35 44.06535 26.11853 39656 ft 487 kts 314°
2026-02-17 04:35 44.12410 26.04565 39665 ft 487 kts 314°
2026-02-17 04:36 44.16640 25.99308 39656 ft 487 kts 314°
2026-02-17 04:36 44.21691 25.93031 39658 ft 487 kts 314°
2026-02-17 04:37 44.26746 25.86742 39656 ft 487 kts 314°
2026-02-17 04:37 44.31796 25.80446 39673 ft 487 kts 314°
2026-02-17 04:38 44.36843 25.74138 39668 ft 487 kts 314°
2026-02-17 04:39 44.44406 25.64657 39669 ft 487 kts 314°
2026-02-17 04:39 44.49442 25.58324 39682 ft 487 kts 314°
2026-02-17 04:40 44.54489 25.51960 39672 ft 488 kts 314°
2026-02-17 04:40 44.59533 25.45587 39675 ft 488 kts 314°
2026-02-17 04:41 44.64573 25.39204 39683 ft 488 kts 313°
2026-02-17 04:41 44.69580 25.32846 39680 ft 488 kts 314°
2026-02-17 04:42 44.74614 25.26439 39683 ft 488 kts 314°
2026-02-17 04:42 44.79646 25.20017 39685 ft 488 kts 313°
2026-02-17 04:43 44.87185 25.10367 39694 ft 488 kts 314°
2026-02-17 04:43 44.92199 25.03930 39687 ft 487 kts 313°
2026-02-17 04:44 44.97206 24.97485 39684 ft 487 kts 313°
2026-02-17 04:44 45.02210 24.91029 39684 ft 487 kts 313°
2026-02-17 04:45 45.07208 24.84564 39674 ft 486 kts 314°
2026-02-17 04:45 45.12200 24.78091 39674 ft 486 kts 313°
2026-02-17 04:46 45.17186 24.71610 39683 ft 486 kts 313°
2026-02-17 04:47 45.24659 24.61864 39677 ft 486 kts 314°
2026-02-17 04:47 45.29633 24.55358 39671 ft 486 kts 314°
2026-02-17 04:48 45.34573 24.48880 39671 ft 487 kts 313°
2026-02-17 04:48 45.39546 24.42344 39663 ft 487 kts 313°
2026-02-17 04:49 45.44513 24.35798 39676 ft 487 kts 314°
2026-02-17 04:49 45.49482 24.29233 39664 ft 487 kts 314°
2026-02-17 04:50 45.54446 24.22657 39664 ft 488 kts 314°
2026-02-17 04:50 45.59413 24.16063 39661 ft 487 kts 314°
2026-02-17 04:51 45.66839 24.06171 39667 ft 486 kts 314°
2026-02-17 04:51 45.71779 23.99568 39580 ft 486 kts 314°
2026-02-17 04:52 45.76718 23.92951 39587 ft 486 kts 313°
2026-02-17 04:52 45.81649 23.86329 39603 ft 486 kts 313°
2026-02-17 04:53 45.86579 23.79690 39623 ft 486 kts 313°
2026-02-17 04:53 45.91469 23.73090 39645 ft 486 kts 313°
2026-02-17 04:54 45.96391 23.66427 39665 ft 486 kts 313°
2026-02-17 04:55 46.03756 23.56426 39672 ft 485 kts 313°
2026-02-17 04:55 46.08657 23.49752 39672 ft 485 kts 313°
2026-02-17 04:56 46.13549 23.43071 39678 ft 484 kts 313°
2026-02-17 04:56 46.18437 23.36379 39670 ft 485 kts 313°
2026-02-17 04:57 46.23321 23.29674 39678 ft 484 kts 313°
2026-02-17 04:57 46.28197 23.22963 39673 ft 484 kts 313°
2026-02-17 04:58 46.33073 23.16235 39669 ft 485 kts 313°
2026-02-17 04:58 46.37944 23.09496 39672 ft 484 kts 313°
2026-02-17 04:59 46.45236 22.99367 39679 ft 484 kts 313°
2026-02-17 04:59 46.50090 22.92614 39672 ft 483 kts 313°
2026-02-17 05:00 46.54937 22.85852 39671 ft 483 kts 313°
2026-02-17 05:00 46.59779 22.79077 39688 ft 483 kts 313°
2026-02-17 05:01 46.64598 22.72316 39672 ft 481 kts 313°
2026-02-17 05:01 46.69407 22.65548 39671 ft 480 kts 313°
2026-02-17 05:02 46.74206 22.58780 39667 ft 480 kts 313°
2026-02-17 05:03 46.81399 22.48600 39660 ft 479 kts 313°
2026-02-17 05:03 46.86177 22.41819 39668 ft 479 kts 313°
2026-02-17 05:04 46.90963 22.35004 39659 ft 480 kts 313°
2026-02-17 05:04 46.95712 22.28222 39651 ft 480 kts 313°
2026-02-17 05:05 47.00492 22.21383 39650 ft 480 kts 313°
2026-02-17 05:05 47.05266 22.14532 39642 ft 480 kts 313°
2026-02-17 05:06 47.10038 22.07667 39640 ft 480 kts 313°
2026-02-17 05:06 47.14805 22.00789 39664 ft 480 kts 313°
2026-02-17 05:07 47.21939 21.90464 39663 ft 479 kts 313°
2026-02-17 05:07 47.26404 21.83251 39666 ft 475 kts 307°
2026-02-17 05:08 47.30517 21.75643 39664 ft 475 kts 305°
2026-02-17 05:08 47.34568 21.67953 39664 ft 474 kts 305°
2026-02-17 05:09 47.38604 21.60256 39669 ft 474 kts 305°
2026-02-17 05:09 47.42641 21.52555 39658 ft 474 kts 305°
2026-02-17 05:10 47.46676 21.44851 39652 ft 474 kts 305°
2026-02-17 05:11 47.52720 21.33271 39677 ft 474 kts 305°
2026-02-17 05:11 47.56747 21.25526 39668 ft 475 kts 305°
2026-02-17 05:12 47.60774 21.17762 39666 ft 475 kts 305°
2026-02-17 05:12 47.64790 21.09995 39667 ft 475 kts 305°
2026-02-17 05:13 47.68805 21.02210 39662 ft 475 kts 305°
2026-02-17 05:13 47.72816 20.94409 39664 ft 475 kts 305°
2026-02-17 05:14 47.76821 20.86596 39662 ft 475 kts 305°
2026-02-17 05:14 47.80790 20.78834 39663 ft 475 kts 305°
2026-02-17 05:15 47.86775 20.67085 39679 ft 474 kts 304°
2026-02-17 05:15 47.90749 20.59255 39664 ft 474 kts 304°
2026-02-17 05:16 47.94717 20.51415 39664 ft 473 kts 304°
2026-02-17 05:16 47.98677 20.43568 39666 ft 473 kts 304°
2026-02-17 05:17 48.02631 20.35710 39676 ft 473 kts 304°
2026-02-17 05:17 48.06576 20.27849 39672 ft 472 kts 304°
2026-02-17 05:18 48.10505 20.19996 39670 ft 472 kts 304°
2026-02-17 05:19 48.16393 20.08186 39668 ft 472 kts 304°
2026-02-17 05:19 48.20440 20.00432 39674 ft 473 kts 308°
2026-02-17 05:20 48.24837 19.93074 39678 ft 474 kts 310°
2026-02-17 05:20 48.29266 19.85729 39663 ft 474 kts 309°
2026-02-17 05:21 48.33639 19.78307 39660 ft 474 kts 309°
2026-02-17 05:21 48.40138 19.67097 39668 ft 474 kts 308°
2026-02-17 05:22 48.44461 19.59602 39671 ft 474 kts 308°
2026-02-17 05:23 48.50942 19.48339 39667 ft 474 kts 308°
2026-02-17 05:23 48.55227 19.40867 39671 ft 474 kts 308°
2026-02-17 05:24 48.59536 19.33332 39665 ft 474 kts 308°
2026-02-17 05:24 48.63841 19.25785 39656 ft 474 kts 308°
2026-02-17 05:25 48.68143 19.18221 39656 ft 474 kts 308°
2026-02-17 05:25 48.71710 19.11930 39651 ft 474 kts 308°
2026-02-17 05:26 48.76000 19.04346 39654 ft 474 kts 308°
2026-02-17 05:26 48.80281 18.96757 39647 ft 474 kts 308°
2026-02-17 05:27 48.86700 18.85336 39659 ft 474 kts 308°
2026-02-17 05:27 48.90970 18.77712 39644 ft 474 kts 308°
2026-02-17 05:28 48.95236 18.70071 39647 ft 474 kts 308°
2026-02-17 05:28 48.99493 18.62426 39642 ft 474 kts 308°
2026-02-17 05:29 49.03744 18.54768 39638 ft 473 kts 308°
2026-02-17 05:29 49.07991 18.47097 39639 ft 473 kts 308°
2026-02-17 05:30 49.12232 18.39415 39641 ft 473 kts 308°
2026-02-17 05:31 49.18585 18.27863 39633 ft 473 kts 308°
2026-02-17 05:31 49.22814 18.20146 39622 ft 473 kts 308°
2026-02-17 05:32 49.26975 18.12352 39624 ft 472 kts 305°
2026-02-17 05:32 49.30820 18.04195 39624 ft 472 kts 304°
2026-02-17 05:33 49.34596 17.95982 39619 ft 471 kts 304°
2026-02-17 05:33 49.38412 17.87803 39621 ft 471 kts 304°
2026-02-17 05:34 49.42255 17.79635 39623 ft 472 kts 304°
2026-02-17 05:34 49.46094 17.71474 39617 ft 472 kts 304°
2026-02-17 05:35 49.51845 17.59199 39617 ft 472 kts 304°
2026-02-17 05:35 49.55674 17.50991 39619 ft 471 kts 304°
2026-02-17 05:36 49.59463 17.42840 39619 ft 471 kts 304°
2026-02-17 05:36 49.63272 17.34621 39619 ft 471 kts 304°
2026-02-17 05:37 49.67071 17.26400 39621 ft 470 kts 304°
2026-02-17 05:37 49.70860 17.18173 39629 ft 469 kts 304°
2026-02-17 05:38 49.74637 17.09947 39625 ft 469 kts 304°
2026-02-17 05:39 49.79805 16.98651 39628 ft 469 kts 304°
2026-02-17 05:39 49.83567 16.90397 39624 ft 469 kts 304°
2026-02-17 05:40 49.87320 16.82140 39619 ft 468 kts 304°
2026-02-17 05:40 49.91065 16.73871 39616 ft 468 kts 304°
2026-02-17 05:41 49.94806 16.65587 39626 ft 468 kts 304°
2026-02-17 05:41 49.98535 16.57303 39620 ft 468 kts 304°
2026-02-17 05:42 50.02262 16.49020 39620 ft 467 kts 305°
2026-02-17 05:42 50.06315 16.41115 39614 ft 468 kts 309°
2026-02-17 05:43 50.12609 16.29568 39608 ft 468 kts 309°
2026-02-17 05:43 50.16792 16.21691 39612 ft 468 kts 308°
2026-02-17 05:44 50.20878 16.13883 39614 ft 468 kts 308°
2026-02-17 05:44 50.24983 16.05996 39609 ft 468 kts 308°
2026-02-17 05:45 50.29089 15.98089 39597 ft 468 kts 308°
2026-02-17 05:45 50.33194 15.90163 39611 ft 468 kts 308°
2026-02-17 05:46 50.37288 15.82238 39599 ft 468 kts 308°
2026-02-17 05:47 50.43400 15.70359 39609 ft 467 kts 308°
2026-02-17 05:47 50.49499 15.58453 39599 ft 467 kts 308°
2026-02-17 05:48 50.53562 15.50491 39604 ft 466 kts 308°
2026-02-17 05:48 50.57610 15.42532 39598 ft 466 kts 308°
2026-02-17 05:49 50.61653 15.34560 39598 ft 466 kts 308°
2026-02-17 05:49 50.65689 15.26580 39598 ft 466 kts 308°
2026-02-17 05:50 50.69720 15.18581 39595 ft 466 kts 308°
2026-02-17 05:51 50.75756 15.06561 39595 ft 465 kts 308°
2026-02-17 05:51 50.77746 15.02587 39280 ft 459 kts 308°
2026-02-17 05:51 50.79727 14.98626 38503 ft 461 kts 308°
2026-02-17 05:51 50.81724 14.94624 37542 ft 464 kts 308°
2026-02-17 05:52 50.83728 14.90603 36554 ft 467 kts 308°
2026-02-17 05:52 50.85748 14.86543 35591 ft 470 kts 308°
2026-02-17 05:52 50.87749 14.82517 34657 ft 473 kts 307°
2026-02-17 05:52 50.89783 14.78414 33784 ft 475 kts 307°
2026-02-17 05:53 50.91975 14.74514 32897 ft 475 kts 315°
2026-02-17 05:53 50.94559 14.71268 32160 ft 473 kts 326°
2026-02-17 05:53 50.97470 14.68907 31516 ft 470 kts 337°
2026-02-17 05:53 51.00569 14.67299 30907 ft 465 kts 342°
2026-02-17 05:54 51.03668 14.65943 30360 ft 459 kts 343°
2026-02-17 05:54 51.06744 14.64715 29839 ft 453 kts 344°
2026-02-17 05:54 51.09788 14.63544 29174 ft 448 kts 345°
2026-02-17 05:55 51.15774 14.61227 27930 ft 436 kts 344°
2026-02-17 05:55 51.18689 14.60075 27426 ft 428 kts 344°
2026-02-17 05:55 51.21558 14.58929 26926 ft 421 kts 344°
2026-02-17 05:55 51.24373 14.57796 26439 ft 414 kts 344°
2026-02-17 05:56 51.27135 14.56678 25964 ft 407 kts 344°
2026-02-17 05:56 51.29866 14.55567 25493 ft 401 kts 344°
2026-02-17 05:56 51.32553 14.54472 25006 ft 396 kts 344°
2026-02-17 05:56 51.35198 14.53391 24531 ft 390 kts 344°
2026-02-17 05:57 51.37836 14.52446 24061 ft 387 kts 349°
2026-02-17 05:57 51.40494 14.51888 23573 ft 384 kts 351°
2026-02-17 05:57 51.43139 14.51416 23107 ft 380 kts 352°
2026-02-17 05:57 51.45757 14.50981 22574 ft 375 kts 352°
2026-02-17 05:58 51.48332 14.50569 22113 ft 370 kts 352°
2026-02-17 05:58 51.50876 14.50168 21651 ft 364 kts 352°
2026-02-17 05:58 51.53383 14.49777 21200 ft 359 kts 352°
2026-02-17 05:59 51.58284 14.49018 20308 ft 349 kts 352°
2026-02-17 05:59 51.60649 14.48652 19870 ft 345 kts 352°
2026-02-17 05:59 51.63027 14.48284 19444 ft 341 kts 352°
2026-02-17 05:59 51.65378 14.47920 18999 ft 338 kts 352°
2026-02-17 06:00 51.67703 14.47559 18574 ft 334 kts 352°
2026-02-17 06:00 51.70008 14.47201 18147 ft 331 kts 352°
2026-02-17 06:00 51.72299 14.46845 17698 ft 329 kts 352°
2026-02-17 06:00 51.74562 14.46494 17256 ft 325 kts 352°
2026-02-17 06:01 51.76809 14.46144 16831 ft 324 kts 352°
2026-02-17 06:01 51.79048 14.45796 16407 ft 322 kts 352°
2026-02-17 06:01 51.81275 14.45449 15998 ft 320 kts 352°
2026-02-17 06:01 51.83489 14.45104 15589 ft 318 kts 352°
2026-02-17 06:02 51.85687 14.44760 15167 ft 316 kts 352°
2026-02-17 06:02 51.87872 14.44419 14781 ft 314 kts 352°
2026-02-17 06:02 51.90041 14.44080 14360 ft 312 kts 352°
2026-02-17 06:03 51.94324 14.43410 13523 ft 307 kts 352°
2026-02-17 06:03 51.96443 14.43077 13103 ft 305 kts 352°
2026-02-17 06:03 51.98548 14.42746 12702 ft 303 kts 352°
2026-02-17 06:03 52.00628 14.42302 12303 ft 300 kts 345°
2026-02-17 06:04 52.02549 14.41106 11909 ft 294 kts 328°
2026-02-17 06:04 52.04092 14.38985 11517 ft 289 kts 308°
2026-02-17 06:04 52.05104 14.36104 11457 ft 303 kts 291°
2026-02-17 06:04 52.05532 14.32721 11311 ft 308 kts 277°
2026-02-17 06:05 52.05735 14.29257 11182 ft 308 kts 277°
2026-02-17 06:05 52.05937 14.25793 11043 ft 307 kts 277°
2026-02-17 06:05 52.06147 14.22346 10902 ft 307 kts 277°
2026-02-17 06:05 52.06365 14.18899 10762 ft 306 kts 277°
2026-02-17 06:06 52.06585 14.15469 10641 ft 305 kts 277°
2026-02-17 06:06 52.06806 14.12038 10484 ft 305 kts 277°
2026-02-17 06:06 52.07028 14.08613 10361 ft 304 kts 277°
2026-02-17 06:07 52.07465 14.01830 10082 ft 303 kts 277°
2026-02-17 06:07 52.07686 13.98383 9951 ft 300 kts 277°
2026-02-17 06:07 52.07895 13.95094 9798 ft 284 kts 277°
2026-02-17 06:07 52.08089 13.92031 9676 ft 269 kts 278°
2026-02-17 06:08 52.08277 13.89056 9568 ft 264 kts 278°
2026-02-17 06:08 52.08468 13.86045 9419 ft 265 kts 278°
2026-02-17 06:08 52.08654 13.83063 9316 ft 265 kts 278°
2026-02-17 06:08 52.08842 13.80079 9195 ft 265 kts 278°
2026-02-17 06:09 52.09027 13.77143 9060 ft 265 kts 278°
2026-02-17 06:09 52.09212 13.74164 8953 ft 264 kts 278°
2026-02-17 06:09 52.09396 13.71198 8841 ft 264 kts 278°
2026-02-17 06:09 52.09579 13.68226 8721 ft 263 kts 278°
2026-02-17 06:10 52.09761 13.65266 8606 ft 263 kts 278°
2026-02-17 06:10 52.09942 13.62308 8488 ft 263 kts 278°
2026-02-17 06:10 52.10152 13.59361 8380 ft 262 kts 279°
2026-02-17 06:11 52.10617 13.53491 8149 ft 261 kts 279°
2026-02-17 06:11 52.10844 13.50563 8020 ft 261 kts 279°
2026-02-17 06:11 52.11068 13.47638 7908 ft 261 kts 279°
2026-02-17 06:11 52.11290 13.44714 7794 ft 260 kts 279°
2026-02-17 06:12 52.11510 13.41802 7670 ft 256 kts 279°
2026-02-17 06:12 52.11717 13.39003 7529 ft 242 kts 279°
2026-02-17 06:12 52.11929 13.36362 7378 ft 229 kts 282°
2026-02-17 06:12 52.12444 13.33966 7248 ft 223 kts 300°
2026-02-17 06:13 52.13308 13.31854 6862 ft 224 kts 307°
2026-02-17 06:13 52.14254 13.29857 6523 ft 222 kts 308°
2026-02-17 06:13 52.15196 13.27881 6187 ft 220 kts 308°
2026-02-17 06:13 52.16122 13.25914 5890 ft 218 kts 308°
2026-02-17 06:14 52.17039 13.23949 5686 ft 218 kts 308°
2026-02-17 06:14 52.17945 13.21964 5639 ft 219 kts 305°
2026-02-17 06:14 52.18427 13.20523 5640 ft 219 kts 294°
2026-02-17 06:15 52.20356 13.16974 4854 ft 216 kts 335°
2026-02-17 06:15 52.21802 13.16234 4219 ft 219 kts 341°
2026-02-17 06:15 52.23261 13.15493 3815 ft 220 kts 343°
2026-02-17 06:15 52.24768 13.15115 3533 ft 220 kts 358°
2026-02-17 06:16 52.26275 13.15586 3366 ft 224 kts 19°
2026-02-17 06:16 52.27604 13.16933 3215 ft 228 kts 40°
2026-02-17 06:16 52.28571 13.18978 3058 ft 230 kts 61°
2026-02-17 06:17 52.28951 13.24083 3003 ft 232 kts 103°
2026-02-17 06:17 52.28419 13.26569 3000 ft 232 kts 110°
2026-02-17 06:17 52.28207 13.29155 3020 ft 232 kts 84°
2026-02-17 06:17 52.28753 13.31590 2821 ft 228 kts 52°
2026-02-17 06:18 52.29883 13.33217 2424 ft 207 kts 38°
2026-02-17 06:18 52.30911 13.34657 2130 ft 183 kts 41°
2026-02-17 06:18 52.31781 13.36018 1795 ft 166 kts 54°
2026-02-17 06:19 52.32721 13.39096 1228 ft 140 kts 73°
2026-02-17 06:19 52.33039 13.40528 973 ft 130 kts 71°
2026-02-17 06:19 52.33346 13.41855 752 ft 120 kts 69°
2026-02-17 06:19 52.33649 13.43119 583 ft 120 kts 69°
2026-02-17 06:20 52.33960 13.44400 427 ft 123 kts 69°
2026-02-17 06:20 52.34273 13.45712 318 ft 125 kts 68°
2026-02-17 06:20 52.34592 13.47055 210 ft 128 kts 69°
2026-02-17 06:20 52.34902 13.48351 162 ft 109 kts 69°
2026-02-17 06:21 52.35131 13.49324 160 ft 73 kts 69°
2026-02-17 06:21 52.35280 13.49943 160 ft 50 kts 68°
2026-02-17 06:21 52.35405 13.50419 160 ft 38 kts 56°
2026-02-17 06:21 52.35547 13.50646 160 ft 20 kts 38°
2026-02-17 06:22 52.35625 13.50748 160 ft 14 kts 38°
2026-02-17 06:22 52.35715 13.50838 160 ft 16 kts 10°
2026-02-17 06:22 52.35831 13.50787 160 ft 19 kts 340°
2026-02-17 06:23 52.36031 13.50663 160 ft 4 kts 339°
2026-02-17 06:23 52.36054 13.50662 160 ft 2 kts 18°
2026-02-17 06:23 52.36058 13.50673 160 ft 1 kts 55°
2026-02-17 06:23 52.36074 13.50724 160 ft 7 kts 69°
2026-02-17 06:24 52.36087 13.50781 160 ft 3 kts 69°
2026-02-17 06:24 52.36088 13.50786 161 ft 0 kts 69°